DELTA 1 DEB, 3126

Orbit data source: Space-Track

DELTA 1 DEB, 3126 is space debris in LEO originally from a launch on Thu, 11 Jan 1968 UTC launched from the Air Force Western Test Range (AFWTR). Debris objects in space refer to the collection of defunct objects orbiting the Earth. Examples of debris include non-operational satellites, rocket bodies, and fragments generated from explosions, collisions, or faulty payload assembly.

Loading next visibility...
Identifier
3126, 1968-002C
Orbit
LEO
Last TLE update
15 hours ago
Origin
Manufacturer
Unknown
Mission
Spacecraft
Bus & Motor
Unknown
Mass
Unknown
Launch date (UTC)
1968-01-11 (57 years ago)
Launch vehicle
Unknown
Launch site
Air Force Western Test Range (AFWTR)
Object type
Payload
Rocket body
Debris
Shape & HBR
Unknown
Radar Cross Section
Small (<0.1 m²)

Expand to show TLE details & history

TLE from 15 hours ago
0 DELTA 1 DEB
1 03126U 68002C   25128.63024456 -.00000038  00000-0  12992-3 0  9994
2 03126 106.0624 262.5695 0320978  83.1342 301.3849 12.82444424682423
Epoch: 2025-05-08T15:07Z
Definitive object data (Epoch: 2025-05-08T15:07:33.129Z)
Latitude
20.45539°
Longitude
162.8497°
Altitude
1,210.762 km
Speed
7.308 km/s
True Right ascension
17h 05m 44s
True Declination
20° 20' 59"
Sunlit
Object was in full shadow at TLE epoch
Visualization TLE readout
Latitude
69.23854°
Longitude
120.80982°
Altitude
1,096.872 km
Speed
7.426 km/s
Apparent Right ascension
02h 47m 29s
Apparent Declination
52° 07' 28"
Sunlit
Object is in daylight
Visualization observer readout
Local Sidereal Time
14:31:18
Azimuth
357.515° N
Elevation
2.108°
Doppler factor
1
Orbital elements
Apogee altitude
1,576.856 km
Perigee altitude
1,082.062 km
Semi-major axis
7,707.596 km
Eccentricity
0.0320978
Inclination
106.0624°
RAAN
262.5695°
Arg. of periapsis
83.1342°
True anomaly
298.17964°
Mean anomaly
301.3849°
Eccentric anomaly
299.78884°
Mean motion
3.20749 °/min
BSTAR
0.00012992
Orbital period
112.24 mins
Loading maneuver chart data...
Loading SW <> Apogee altitude chart data...
Loading historical data...
Loading historical data...
Loading historical data...
Loading historical data...
Loading historical data...
Loading historical data...
Loading historical data...

DELTA 1 DEB Visibility forecast

Observer location: undefined°, undefined°

Span
Click to sort rows by Start time (UTC) header in descending order
Start Az.
Max El. time (UTC)
Max El. Az.
Max El.
End time (UTC)
End Az.
13 mins2025-05-09 07:58:28.948Z141.071° SSE2025-05-09 08:05:28.948Z50.197° ENE41.602°2025-05-09 08:11:28.948Z343.82° N
8 mins2025-05-09 09:51:28.948Z217.368° SW2025-05-09 09:55:28.948Z259.376° W21.106°2025-05-09 09:59:28.948Z301.26° NW
11 mins2025-05-09 21:35:28.948Z42.317° NE2025-05-09 21:40:28.948Z117.468° SE36.669°2025-05-09 21:46:28.948Z179.855° S
10 mins2025-05-09 23:25:28.948Z356.496° N2025-05-09 23:29:28.948Z307.82° NW29.079°2025-05-09 23:35:28.948Z245.19° WSW
|